time_stamp(utc),avg(mph),gust(mph),direction(deg),12m_air_temp(f),sonic_u(cm/s),sonic_v(cm/s),sonic_w(cm/s),pressure,2m_air_temp(f),pyranometer(W/m^2)
"2018-06-18 00:02:07+00",8.2,11.2,,71.9,21,-344,-7,1018.62,72.2,0
"2018-06-18 00:07:07+00",8.5,12.5,,71.8,44,-364,-5,1018.46,72,0
"2018-06-18 00:12:07+00",8.8,12.8,,71.5,38,-382,-11,1018.49,71.7,0
"2018-06-18 00:17:07+00",8.6,11.6,,71.5,33,-366,-4,1018.44,71.5,0
"2018-06-18 00:22:07+00",9.2,11.2,,71.3,45,-393,-12,1018.38,71.4,0
"2018-06-18 00:27:07+00",9.0,12.0,,71.2,16,-367,-13,1018.39,71.3,0
"2018-06-18 00:32:07+00",8.3,10.3,,71.2,33,-355,-4,1018.32,71.1,0
"2018-06-18 00:37:07+00",8.4,12.4,,71.2,54,-362,2,1018.33,71,0
"2018-06-18 00:42:07+00",10.9,12.9,,71.1,79,-463,-21,1018.31,71,0
"2018-06-18 00:47:07+00",8.0,10.0,,71,14,-330,4,1018.18,70.9,0
"2018-06-18 00:52:07+00",10.1,12.1,,71.1,17,-437,-12,1018.13,70.8,0
"2018-06-18 00:57:07+00",9.9,13.9,,71.1,-14,-423,-1,1018.07,70.9,0
"2018-06-18 01:02:07+00",9.6,11.6,,71.3,-13,-398,-19,1018.03,71,0
"2018-06-18 01:07:07+00",11.6,14.6,,71.3,11,-487,-15,1018.14,71,0
"2018-06-18 01:12:07+00",10.4,13.4,,71.3,-21,-431,-13,1018.15,71,0
"2018-06-18 01:17:07+00",10.0,13.0,,71.3,-21,-416,-4,1018.15,71,0
"2018-06-18 01:22:07+00",8.9,12.9,,71.2,-49,-384,-13,1018.19,71,0
"2018-06-18 01:27:07+00",9.7,12.7,,71.2,-83,-404,11,1018.31,70.9,0
"2018-06-18 01:32:07+00",10.7,12.7,,71.2,-69,-448,-22,1018.36,70.9,0
"2018-06-18 01:37:07+00",11.5,13.5,,71.1,-110,-487,-16,1018.37,70.9,0
"2018-06-18 01:42:07+00",10.6,13.6,,71,-88,-443,-3,1018.38,70.9,0
"2018-06-18 01:47:07+00",11.6,14.6,,71,-99,-479,-11,1018.35,70.8,0
"2018-06-18 01:52:07+00",9.4,12.4,,70.9,-56,-386,4,1018.34,70.7,0
"2018-06-18 01:57:07+00",9.8,13.8,,70.9,-82,-401,-9,1018.37,70.7,0
"2018-06-18 02:02:07+00",12.3,15.3,,71,-104,-509,-13,1018.51,70.7,0
"2018-06-18 02:07:07+00",11.3,14.3,,70.9,-111,-468,-9,1018.58,70.7,0
"2018-06-18 02:12:07+00",10.3,13.3,,70.8,-100,-423,-5,1018.65,70.6,0
"2018-06-18 02:17:07+00",11.1,15.1,,70.8,-93,-469,-14,1018.59,70.6,0
"2018-06-18 02:22:07+00",9.9,12.9,,70.7,-68,-417,-14,1018.4,70.5,0
"2018-06-18 02:27:07+00",11.3,14.3,,70.7,-53,-479,-33,1018.39,70.4,0
"2018-06-18 02:32:07+00",10.0,13.0,,70.6,-79,-413,-10,1018.32,70.4,0
"2018-06-18 02:37:07+00",10.9,13.9,,70.4,-79,-450,-14,1018.29,70.3,0
"2018-06-18 02:42:07+00",10.6,13.6,,70.4,-82,-442,3,1018.21,70.2,0
"2018-06-18 02:47:07+00",12.0,15.0,,70.4,-103,-501,-19,1018.12,70.2,0
"2018-06-18 02:52:07+00",11.2,16.2,,70.4,-132,-466,5,1018.22,70.2,0
"2018-06-18 02:57:07+00",12.1,15.1,,70.3,-138,-501,-1,1018.21,70.1,0
"2018-06-18 03:02:07+00",10.6,14.6,,70.3,-131,-430,23,1018.24,70,0
"2018-06-18 03:07:07+00",11.7,16.7,,70.3,-138,-486,14,1018.35,70,0
"2018-06-18 03:12:07+00",11.9,13.9,,70.3,-152,-491,-8,1018.39,70,0
"2018-06-18 03:17:07+00",10.9,15.9,,70.3,-157,-450,20,1018.34,70,0
"2018-06-18 03:22:07+00",11.6,15.6,,70.2,-161,-480,6,1018.23,69.9,0
"2018-06-18 03:27:07+00",9.3,13.3,,70.1,-111,-378,9,1018.17,69.8,0
"2018-06-18 03:32:07+00",11.7,13.7,,70.1,-155,-483,-11,1018.19,69.8,0
"2018-06-18 03:37:07+00",12.3,15.3,,70.1,-178,-485,-16,1018.26,69.7,0
"2018-06-18 03:42:07+00",11.5,14.5,,70.1,-156,-464,4,1018.35,69.7,0
"2018-06-18 03:47:07+00",12.6,16.6,,70,-169,-520,-7,1018.41,69.7,0
"2018-06-18 03:52:07+00",10.7,14.7,,70,-136,-437,11,1018.29,69.7,0
"2018-06-18 03:57:07+00",10.5,16.5,,70,-138,-430,16,1018.23,69.7,0
"2018-06-18 04:02:07+00",11.7,15.7,,70,-131,-474,6,1018.18,69.7,0
"2018-06-18 04:07:07+00",12.9,14.9,,70,-150,-538,-13,1018.27,69.7,0
"2018-06-18 04:12:07+00",10.4,14.4,,70,-117,-429,5,1018.17,69.7,0
"2018-06-18 04:17:07+00",11.4,15.4,,69.9,-124,-472,-10,1018.1,69.6,0
"2018-06-18 04:22:07+00",12.4,15.4,,69.9,-126,-517,-1,1018.13,69.6,0
"2018-06-18 04:27:07+00",13.2,16.2,,69.9,-162,-539,-21,1018.19,69.6,0
"2018-06-18 04:32:07+00",9.9,11.9,,69.8,-117,-415,0,1018.18,69.6,0
"2018-06-18 04:37:07+00",10.1,15.1,,69.8,-123,-406,13,1018.27,69.6,0
"2018-06-18 04:42:07+00",10.9,14.9,,69.9,-153,-447,-8,1018.19,69.6,0
"2018-06-18 04:47:07+00",10.1,13.1,,69.8,-144,-413,7,1018.21,69.5,0
"2018-06-18 04:52:07+00",9.9,12.9,,69.8,-144,-402,0,1018.17,69.5,0
"2018-06-18 04:57:07+00",7.3,10.3,,69.8,-94,-295,-2,1018.2,69.5,0
"2018-06-18 05:02:07+00",8.3,10.3,,69.7,-128,-332,1,1018.22,69.4,0
"2018-06-18 05:07:07+00",9.3,10.3,,69.8,-161,-361,0,1018.23,69.4,0
"2018-06-18 05:12:07+00",8.3,10.3,,69.8,-179,-315,-1,1018.25,69.4,0
"2018-06-18 05:17:07+00",8.5,9.5,,69.9,-196,-317,1,1018.14,69.4,0
"2018-06-18 05:22:07+00",7.7,8.7,,70,-207,-277,0,1018.26,69.4,0
"2018-06-18 05:27:07+00",6.4,7.4,,70,-163,-233,-4,1018.27,69.4,0
"2018-06-18 05:32:07+00",6.7,8.7,,69.9,-156,-252,3,1018.15,69.4,0
"2018-06-18 05:37:07+00",6.6,7.6,,69.9,-180,-227,-1,1018.08,69.3,0
"2018-06-18 05:42:07+00",7.1,8.1,,69.9,-189,-258,11,1018.06,69.4,0
"2018-06-18 05:47:07+00",8.5,10.5,,69.9,-215,-310,2,1018.04,69.3,0
"2018-06-18 05:52:07+00",9.0,11.0,,70,-217,-338,5,1018.01,69.3,0
"2018-06-18 05:57:07+00",8.3,9.3,,70,-212,-300,1,1018.02,69.3,0
"2018-06-18 06:02:07+00",8.6,9.6,,70,-230,-308,-1,1017.89,69.3,0
"2018-06-18 06:07:07+00",7.9,8.9,,70,-219,-284,5,1017.92,69.3,0
"2018-06-18 06:12:07+00",7.9,8.9,,69.9,-202,-291,-1,1017.88,69.3,0
"2018-06-18 06:17:07+00",8.3,9.3,,70,-203,-309,2,1017.84,69.2,0
"2018-06-18 06:22:07+00",9.0,10.0,,69.9,-214,-341,-1,1017.78,69.2,0
"2018-06-18 06:27:07+00",8.5,9.5,,69.9,-181,-321,-4,1017.77,69.1,0
"2018-06-18 06:32:07+00",7.5,8.5,,69.8,-141,-287,-2,1017.7,69.1,0
"2018-06-18 06:37:07+00",7.0,8.0,,69.7,-132,-265,2,1017.64,69,0
"2018-06-18 06:42:07+00",6.7,7.7,,69.7,-138,-258,5,1017.59,68.9,0
"2018-06-18 06:47:07+00",7.0,7.0,,69.7,-172,-256,3,1017.66,68.9,0
"2018-06-18 06:52:07+00",6.3,7.3,,69.6,-181,-216,1,1017.6,68.9,0
"2018-06-18 06:57:07+00",5.6,6.6,,69.6,-158,-196,10,1017.63,68.9,0
"2018-06-18 07:02:07+00",6.9,7.9,,69.5,-208,-232,-1,1017.57,68.9,0
"2018-06-18 07:07:07+00",6.9,7.9,,69.6,-191,-245,3,1017.57,68.9,0
"2018-06-18 07:12:07+00",7.0,8.0,,69.7,-198,-246,-1,1017.54,68.9,0
"2018-06-18 07:17:07+00",5.3,6.3,,69.6,-141,-193,5,1017.69,68.8,0
"2018-06-18 07:22:07+00",6.2,7.2,,69.6,-195,-184,6,1017.79,68.8,0
"2018-06-18 07:27:07+00",6.5,7.5,,69.5,-207,-184,6,1017.74,68.8,0
"2018-06-18 07:32:07+00",7.2,8.2,,69.5,-231,-210,-2,1017.8,68.8,0
"2018-06-18 07:37:07+00",7.0,7.0,,69.6,-243,-175,11,1017.85,68.8,0
"2018-06-18 07:42:07+00",4.6,5.6,,69.5,-187,-99,8,1017.97,68.8,0
"2018-06-18 07:47:07+00",5.5,6.5,,69.4,-198,-132,5,1017.96,68.7,0
"2018-06-18 07:52:07+00",7.4,8.4,,69.5,-255,-192,10,1017.94,68.7,0
"2018-06-18 07:57:07+00",6.5,7.5,,69.5,-288,-117,9,1017.98,68.8,0
"2018-06-18 08:02:07+00",5.9,6.9,,69.5,-203,-141,6,1018.01,68.7,0
"2018-06-18 08:07:07+00",6.5,7.5,,69.7,-205,-200,3,1017.98,68.7,0
"2018-06-18 08:12:07+00",6.9,7.9,,69.7,-224,-192,4,1017.87,68.7,0
"2018-06-18 08:17:07+00",6.9,7.9,,69.8,-216,-214,4,1017.82,68.9,0
"2018-06-18 08:22:07+00",7.2,8.2,,69.8,-231,-206,7,1017.84,69,0
"2018-06-18 08:27:07+00",6.7,7.7,,69.8,-252,-152,13,1017.84,69.1,0
"2018-06-18 08:32:07+00",7.0,7.0,,69.9,-218,-229,0,1017.88,69.1,0
"2018-06-18 08:37:07+00",6.5,7.5,,69.8,-179,-234,5,1017.84,69,0
"2018-06-18 08:42:07+00",7.1,8.1,,69.7,-192,-254,2,1017.81,68.9,0
"2018-06-18 08:47:07+00",7.9,8.9,,69.7,-219,-279,-1,1017.7,69,0
"2018-06-18 08:52:07+00",7.4,8.4,,69.7,-223,-274,-8,1017.7,68.9,0
"2018-06-18 08:57:07+00",6.0,7.0,,69.6,-214,-255,-22,1017.66,68.9,0
"2018-06-18 09:02:07+00",7.4,8.4,,69.7,-299,-275,-38,1017.57,69,0
"2018-06-18 09:07:07+00",7.1,8.1,,69.7,-267,-247,-17,1017.75,69.1,0
"2018-06-18 09:12:07+00",8.8,10.8,,69.7,-344,-196,-17,1017.93,69.2,0
"2018-06-18 09:17:07+00",12.2,13.2,,70,-471,-288,17,1017.86,69.5,0
"2018-06-18 09:22:07+00",11.1,13.1,,69.9,-373,-304,4,1017.84,69.8,0
"2018-06-18 09:27:07+00",12.0,16.0,,69.8,-393,-351,20,1017.87,69.7,0
"2018-06-18 09:32:07+00",12.2,14.2,,69.8,-428,-308,12,1018.03,69.8,0
"2018-06-18 09:37:07+00",10.6,11.6,,69.9,-369,-270,6,1017.97,69.8,0
"2018-06-18 09:42:07+00",10.0,12.0,,69.9,-395,-229,8,1017.97,69.9,0
"2018-06-18 09:47:07+00",8.9,10.9,,70,-364,-190,18,1017.9,70,0
"2018-06-18 09:52:07+00",7.7,9.7,,70.1,-274,-194,26,1017.85,70.1,0
"2018-06-18 09:57:07+00",7.9,8.9,,70.1,-301,-183,7,1017.89,70.1,0
"2018-06-18 10:02:07+00",6.3,7.3,,70.2,-222,-160,17,1017.8,70.2,0
"2018-06-18 10:07:07+00",5.3,6.3,,70.2,-177,-153,15,1017.86,70.2,0
"2018-06-18 10:12:07+00",6.7,7.7,,70.1,-245,-167,14,1017.83,70.2,0
"2018-06-18 10:17:07+00",7.1,8.1,,70.1,-239,-192,7,1017.9,70.2,0
"2018-06-18 10:22:07+00",6.7,7.7,,70,-195,-226,3,1017.94,70.2,0
"2018-06-18 10:27:07+00",7.1,9.1,,70,-220,-231,12,1017.92,70.2,0
"2018-06-18 10:32:07+00",7.5,9.5,,70.1,-296,-175,22,1017.88,70.3,0
"2018-06-18 10:37:07+00",7.2,8.2,,69.9,-257,-177,18,1017.83,70.2,0
"2018-06-18 10:42:07+00",7.1,9.1,,69.9,-207,-243,12,1017.84,70.2,1.4
"2018-06-18 10:47:07+00",8.0,9.0,,69.8,-242,-263,-2,1017.85,70,5.2
"2018-06-18 10:52:07+00",7.3,8.3,,69.7,-307,-153,4,1017.88,70.1,7.9
"2018-06-18 10:57:07+00",8.8,9.8,,69.7,-365,-119,18,1017.89,70.2,6.4
"2018-06-18 11:02:07+00",7.4,8.4,,69.9,-252,-197,6,1017.95,70.3,8
"2018-06-18 11:07:07+00",8.3,10.3,,69.9,-319,-191,17,1017.88,70.3,7.9
"2018-06-18 11:12:07+00",8.8,9.8,,69.8,-357,-103,15,1017.83,70.3,7.3
"2018-06-18 11:17:07+00",6.1,7.1,,69.8,-255,-44,7,1017.77,70.3,11.8
"2018-06-18 11:22:07+00",5.8,6.8,,69.9,-216,-124,32,1017.71,70.5,16.8
"2018-06-18 11:27:07+00",7.5,9.5,,69.9,-311,-112,32,1017.75,70.5,23.3
"2018-06-18 11:32:07+00",5.4,7.4,,70,-168,-173,23,1017.72,70.6,37.1
"2018-06-18 11:37:07+00",7.9,8.9,,69.7,-310,-174,-3,1017.73,70.6,81.7
"2018-06-18 11:42:07+00",5.6,6.6,,69.7,-229,-118,-4,1017.72,70.8,65.2
"2018-06-18 11:47:07+00",5.8,6.8,,69.7,-238,-108,5,1017.6,71,85.4
"2018-06-18 11:52:07+00",6.3,7.3,,69.8,-240,-145,16,1017.52,71.1,52.5
"2018-06-18 11:57:07+00",5.3,6.3,,69.8,-164,-163,-3,1017.47,71.3,75.7
"2018-06-18 12:02:07+00",5.2,6.2,,69.9,-153,-169,3,1017.5,71.5,101.3
"2018-06-18 12:07:07+00",5.0,6.0,,70.1,-112,-188,5,1017.48,71.6,73
"2018-06-18 12:12:07+00",5.6,7.6,,70.2,-120,-202,10,1017.48,71.7,136.2
"2018-06-18 12:17:07+00",6.0,7.0,,70.3,-130,-224,-8,1017.38,71.8,131.9
"2018-06-18 12:22:07+00",7.3,8.3,,70.2,-125,-282,-11,1017.39,72.1,186.3
"2018-06-18 12:27:07+00",5.8,6.8,,70.4,-65,-228,8,1017.39,72.1,100.2
"2018-06-18 12:32:07+00",8.8,10.8,,70.5,-131,-351,-10,1017.15,72,110.4
"2018-06-18 12:37:07+00",6.9,8.9,,70.5,-100,-279,-5,1017.21,72,86.9
"2018-06-18 12:42:07+00",7.0,9.0,,70.8,-83,-282,40,1017.25,72.1,185.3
"2018-06-18 12:47:07+00",6.0,7.0,,71.1,-68,-246,-1,1017.27,72.5,117.5
"2018-06-18 12:52:07+00",6.5,8.5,,71.3,-24,-265,-14,1017.22,72.7,210.7
"2018-06-18 12:57:07+00",6.8,8.8,,71.5,-114,-265,-2,1017.15,73,257.7
"2018-06-18 13:02:07+00",7.8,9.8,,71.6,-76,-322,-11,1017.16,73.1,231.5
"2018-06-18 13:07:07+00",7.1,8.1,,71.6,-78,-292,1,1017.16,73.3,252.9
"2018-06-18 13:12:07+00",5.4,7.4,,71.8,-20,-210,66,1017.17,73.5,197.6
"2018-06-18 13:17:07+00",6.0,8.0,,71.4,-50,-238,35,1017.18,73,244.1
"2018-06-18 13:22:07+00",6.0,9.0,,71.7,-10,-250,17,1017.16,73.2,294.9
"2018-06-18 13:27:07+00",7.4,9.4,,72.1,-66,-305,-10,1017.04,73.5,296
"2018-06-18 13:32:07+00",10.4,12.4,,72.2,29,-436,-25,1017.09,73.8,295.1
"2018-06-18 13:37:07+00",9.4,11.4,,72.2,15,-390,-27,1016.98,73.6,318.6
"2018-06-18 13:42:07+00",9.5,12.5,,71.4,24,-392,0,1017,73.1,331.1
"2018-06-18 13:47:07+00",9.6,11.6,,71.8,-102,-395,-19,1017.03,73.6,353.7
"2018-06-18 13:52:07+00",7.8,10.8,,72,-66,-315,1,1017.11,73.8,355.4
"2018-06-18 13:57:07+00",10.3,12.3,,72.2,-80,-438,-11,1017.04,74.3,341.9
"2018-06-18 14:02:07+00",9.9,12.9,,72.4,-96,-403,-22,1016.83,74.4,337.2
"2018-06-18 14:07:07+00",9.6,13.6,,72.9,-74,-391,-10,1016.76,74.7,333.6
"2018-06-18 14:12:07+00",10.4,12.4,,73.2,-96,-423,-34,1016.62,74.9,363.2
"2018-06-18 14:17:07+00",10.3,12.3,,73.6,-108,-428,-13,1016.67,75.3,348.1
"2018-06-18 14:22:07+00",8.0,10.0,,73.4,-48,-327,6,1016.83,75.2,379.2
"2018-06-18 14:27:07+00",10.1,13.1,,73.4,-91,-420,-23,1016.77,75.4,415.5
"2018-06-18 14:32:07+00",11.7,13.7,,73.7,-164,-478,-20,1016.79,75.8,442.2
"2018-06-18 14:37:07+00",12.5,14.5,,73.8,-185,-497,-19,1016.68,76.1,449.2
"2018-06-18 14:42:07+00",9.7,11.7,,74.4,-136,-389,11,1016.65,76.6,454.2
"2018-06-18 14:47:07+00",12.1,15.1,,74.6,-169,-492,-17,1016.63,76.9,466.5
"2018-06-18 14:52:07+00",10.1,12.1,,74.2,70,-427,-7,1016.52,76.5,467.4
"2018-06-18 14:57:07+00",10.6,12.6,,73.9,28,-443,-16,1016.49,76.1,469.6
"2018-06-18 15:02:07+00",10.3,11.3,,74.1,41,-431,-31,1016.55,76.3,473.8
"2018-06-18 15:07:07+00",11.9,12.9,,73.8,86,-508,-23,1016.58,76,478.6
"2018-06-18 15:12:07+00",12.7,15.7,,72.8,93,-538,-19,1016.57,75.2,482.1
"2018-06-18 15:17:07+00",12.9,15.9,,71.9,44,-535,-15,1016.66,74.5,487
"2018-06-18 15:22:07+00",11.8,13.8,,72.4,14,-491,-28,1016.57,74.2,495.4
"2018-06-18 15:27:07+00",10.7,12.7,,73,30,-451,-20,1016.61,74.7,501.4
"2018-06-18 15:32:07+00",10.4,13.4,,73,-8,-433,10,1016.5,74.7,502.4
"2018-06-18 15:37:07+00",9.5,13.5,,73.8,-121,-380,14,1016.56,75.4,509
"2018-06-18 15:42:07+00",12.5,14.5,,74.2,-135,-525,-2,1016.52,76.2,524.3
"2018-06-18 15:47:07+00",9.6,14.6,,74.2,-88,-399,25,1016.51,76.4,532.4
"2018-06-18 15:52:07+00",12.3,15.3,,73.4,-126,-503,-25,1016.45,75.6,486.2
"2018-06-18 15:57:07+00",10.2,15.2,,73.9,-67,-419,4,1016.44,75.7,534.1
"2018-06-18 16:02:07+00",10.0,15.0,,74.3,2,-421,26,1016.6,76.3,536
"2018-06-18 16:07:07+00",12.6,15.6,,74.2,-112,-517,-9,1016.51,76.4,527
"2018-06-18 16:12:07+00",10.3,13.3,,74.7,-94,-437,-1,1016.54,76.8,535.8
"2018-06-18 16:17:07+00",11.7,14.7,,75.2,-129,-477,-10,1016.48,77.4,523
"2018-06-18 16:22:07+00",14.1,16.1,,75.4,-142,-589,-17,1016.32,77.2,540
"2018-06-18 16:27:07+00",15.2,17.2,,75.3,-212,-619,-14,1016.33,77.5,535.2
"2018-06-18 16:32:07+00",9.9,15.9,,75.4,-167,-396,45,1016.39,77.8,544
"2018-06-18 16:37:07+00",13.8,16.8,,75.2,-180,-575,8,1016.2,77.8,528.6
"2018-06-18 16:42:07+00",15.6,17.6,,74.7,-300,-602,-15,1016.08,77.3,542.9
"2018-06-18 16:47:07+00",14.7,16.7,,75.3,-289,-571,11,1015.99,77.6,542.5
"2018-06-18 16:52:07+00",17.7,19.7,,76,-364,-673,-26,1015.92,78.2,517.9
"2018-06-18 16:57:07+00",12.2,16.2,,76.7,-188,-492,20,1015.85,78.9,548.5
"2018-06-18 17:02:07+00",16.8,20.8,,75.9,-299,-659,-16,1015.78,78.2,455.7
"2018-06-18 17:07:07+00",16.1,18.1,,75.6,-293,-627,-17,1015.76,78,549.8
"2018-06-18 17:12:07+00",18.0,22.0,,75.8,-279,-730,-17,1015.69,78.1,555.9
"2018-06-18 17:17:07+00",16.3,20.3,,75.7,-256,-645,-25,1015.54,77.9,555.7
"2018-06-18 17:22:07+00",16.7,20.7,,75.8,-249,-666,-12,1015.48,78.1,555
"2018-06-18 17:27:07+00",16.0,19.0,,75.5,-285,-636,-5,1015.48,77.9,552.5
"2018-06-18 17:32:07+00",14.4,18.4,,75.8,-225,-588,10,1015.39,78.1,553.2
"2018-06-18 17:37:07+00",17.6,21.6,,76,-307,-692,-24,1015.33,78.2,540
"2018-06-18 17:42:07+00",17.7,20.7,,76.3,-275,-710,-28,1015.33,78.4,541
"2018-06-18 17:47:07+00",18.0,21.0,,76.1,-286,-717,-18,1015.14,78.3,519.4
"2018-06-18 17:52:07+00",17.1,21.1,,76.1,-225,-708,-7,1015.2,78.2,499.4
"2018-06-18 17:57:07+00",15.1,19.1,,75.8,-223,-610,-7,1015.15,78.1,533
"2018-06-18 18:02:07+00",16.4,19.4,,75.8,-254,-654,-23,1015.08,78,531.4
"2018-06-18 18:07:07+00",15.0,20.0,,76.1,-211,-611,7,1015.08,78.3,544.6
"2018-06-18 18:12:07+00",14.6,18.6,,76.4,-161,-592,5,1015.03,78.5,519.4
"2018-06-18 18:17:07+00",13.4,17.4,,76.5,-148,-557,10,1015.05,78.4,537.6
"2018-06-18 18:22:07+00",15.5,19.5,,76,-186,-632,11,1014.96,78.1,501.4
"2018-06-18 18:27:07+00",16.4,19.4,,76.2,-245,-658,-10,1014.91,78.1,368.4
"2018-06-18 18:32:07+00",17.6,20.6,,76.7,-297,-699,-12,1014.91,78.6,403.9
"2018-06-18 18:37:07+00",18.3,20.3,,76.7,-325,-714,-14,1014.78,78.6,374.2
"2018-06-18 18:42:07+00",17.6,20.6,,76.7,-415,-662,5,1014.81,78.6,382.8
"2018-06-18 18:47:07+00",17.3,19.3,,76.6,-371,-663,-11,1014.72,78.7,492.1
"2018-06-18 18:52:07+00",18.7,22.7,,76.9,-408,-715,4,1014.62,79,495.1
"2018-06-18 18:57:07+00",18.4,21.4,,77.3,-381,-705,-14,1014.49,79.3,496
"2018-06-18 19:02:07+00",19.9,21.9,,77.6,-496,-744,-14,1014.44,79.8,499.2
"2018-06-18 19:07:07+00",17.7,22.7,,78,-369,-686,36,1014.47,80,482.2
"2018-06-18 19:12:07+00",18.9,20.9,,78.3,-383,-735,-6,1014.37,80.2,475.4
"2018-06-18 19:17:07+00",20.7,23.7,,78.1,-477,-781,-16,1014.28,80.1,448.6
"2018-06-18 19:22:07+00",19.8,23.8,,78.1,-430,-758,-14,1014.23,80.2,440.6
"2018-06-18 19:27:07+00",16.7,18.7,,78.3,-391,-644,4,1014.19,80.4,424.6
"2018-06-18 19:32:07+00",19.5,22.5,,78.1,-528,-718,27,1014.1,80.3,438.7
"2018-06-18 19:37:07+00",16.1,20.1,,78.3,-375,-617,21,1013.98,80.4,399.6
"2018-06-18 19:42:07+00",20.6,22.6,,78.4,-485,-776,-16,1013.9,80.3,386.4
"2018-06-18 19:47:07+00",18.9,20.9,,78.6,-425,-728,25,1013.86,80.5,400.7
"2018-06-18 19:52:07+00",20.1,23.1,,78.4,-394,-776,-9,1013.82,80.3,392
"2018-06-18 19:57:07+00",19.1,21.1,,78.7,-426,-726,-9,1013.92,80.4,373.4
"2018-06-18 20:02:07+00",18.8,20.8,,78.9,-451,-701,7,1013.9,80.5,360.3
"2018-06-18 20:07:07+00",15.7,19.7,,79.1,-343,-608,33,1013.74,80.7,344.1
"2018-06-18 20:12:07+00",19.1,22.1,,79.1,-404,-737,-5,1013.62,80.8,377.7
"2018-06-18 20:17:07+00",21.2,24.2,,79.1,-446,-819,-9,1013.51,80.8,347.3
"2018-06-18 20:22:07+00",22.8,25.8,,79.1,-454,-884,-15,1013.42,80.8,366.3
"2018-06-18 20:27:07+00",21.4,23.4,,79.2,-469,-820,-15,1013.38,80.8,281
"2018-06-18 20:32:07+00",19.9,22.9,,79.6,-417,-765,-6,1013.33,81.1,67.5
"2018-06-18 20:37:07+00",20.9,23.9,,79.3,-384,-816,-21,1013.32,80.9,66.2
"2018-06-18 20:42:07+00",17.2,22.2,,79.1,-341,-669,5,1013.34,80.6,60.8
"2018-06-18 20:47:07+00",18.6,19.6,,78.7,-409,-704,-17,1013.38,80.3,68.4
"2018-06-18 20:52:07+00",15.1,21.1,,79.1,-294,-595,-10,1013.29,80.6,62
"2018-06-18 20:57:07+00",18.4,21.4,,79.1,-333,-716,-17,1013.18,80.5,69.3
"2018-06-18 21:02:07+00",18.1,22.1,,78.8,-306,-728,-7,1012.99,80.1,269.9
"2018-06-18 21:07:07+00",19.0,21.0,,78.8,-317,-756,-21,1012.83,80.1,285.2
"2018-06-18 21:12:07+00",18.2,22.2,,79,-473,-683,12,1012.72,80.5,277.2
"2018-06-18 21:17:07+00",18.5,22.5,,79.2,-395,-715,1,1012.68,80.7,219.3
"2018-06-18 21:22:07+00",17.0,20.0,,79.4,-384,-648,3,1012.68,80.8,58.4
"2018-06-18 21:27:07+00",20.6,24.6,,79.4,-488,-778,-5,1012.67,80.7,133.8
"2018-06-18 21:32:07+00",17.2,20.2,,78.9,-430,-653,14,1012.71,80.1,109.3
"2018-06-18 21:37:07+00",20.8,22.8,,78.8,-464,-791,-8,1012.6,79.7,126.7
"2018-06-18 21:42:07+00",18.3,22.3,,78.6,-430,-698,6,1012.6,79.4,100.3
"2018-06-18 21:47:07+00",17.4,19.4,,78.4,-365,-671,-9,1012.5,79.1,102.6
"2018-06-18 21:52:07+00",17.3,20.3,,78.3,-313,-686,4,1012.33,79.2,172
"2018-06-18 21:57:07+00",20.3,22.3,,78.3,-370,-798,-18,1012.29,79.3,216.1
"2018-06-18 22:02:07+00",17.9,21.9,,78.2,-329,-704,-3,1012.25,79.5,178.6
"2018-06-18 22:07:07+00",15.8,19.8,,77.9,-263,-634,17,1012.03,79.3,163.1
"2018-06-18 22:12:07+00",17.1,20.1,,77.7,-269,-688,-10,1011.93,78.9,127.6
"2018-06-18 22:17:07+00",18.1,20.1,,77.2,-320,-714,-7,1011.99,78.3,77
"2018-06-18 22:22:07+00",18.8,21.8,,76.9,-426,-722,7,1011.93,77.8,102
"2018-06-18 22:27:07+00",16.4,21.4,,76.9,-385,-628,15,1011.82,77.6,45.2
"2018-06-18 22:32:07+00",16.1,19.1,,76.5,-330,-621,5,1011.73,77.3,52.8
"2018-06-18 22:37:07+00",15.2,18.2,,76.6,-344,-582,5,1011.65,77.2,113.7
"2018-06-18 22:42:07+00",16.6,18.6,,76.7,-390,-625,-2,1011.6,77.5,114.8
"2018-06-18 22:47:07+00",16.9,18.9,,76.7,-390,-629,-17,1011.5,77.6,103.7
"2018-06-18 22:52:07+00",19.4,23.4,,76.9,-475,-725,-11,1011.35,77.7,88.8
"2018-06-18 22:57:07+00",20.1,24.1,,77,-529,-748,9,1011.3,77.6,59.6
"2018-06-18 23:02:07+00",18.3,21.3,,76.8,-501,-666,13,1011.15,77.4,39.5
"2018-06-18 23:07:07+00",18.0,20.0,,76.5,-488,-656,-8,1011.07,77.1,48.1
"2018-06-18 23:12:07+00",14.9,17.9,,76.2,-437,-538,49,1011.02,76.9,48.4
"2018-06-18 23:17:07+00",17.4,20.4,,76.1,-497,-619,30,1011,76.7,27.3
"2018-06-18 23:22:07+00",15.4,17.4,,75.9,-466,-531,37,1011.08,76.4,2
"2018-06-18 23:27:07+00",15.6,18.6,,75.6,-455,-559,23,1011.07,76.1,0.1
"2018-06-18 23:32:07+00",17.0,19.0,,75.2,-530,-560,15,1011.12,75.7,0.2
"2018-06-18 23:37:07+00",18.2,22.2,,75,-544,-625,8,1011.14,75.3,0
"2018-06-18 23:42:07+00",19.0,22.0,,74.8,-583,-643,42,1011.16,75.1,0
"2018-06-18 23:47:07+00",17.7,21.7,,74.7,-532,-607,15,1011.09,74.8,0
"2018-06-18 23:52:07+00",15.7,20.7,,74.8,-489,-519,29,1011.09,74.8,0
"2018-06-18 23:57:07+00",16.0,18.0,,74.8,-523,-470,25,1011.08,74.8,0
